Reidsville, NC

12:38 PM EDT on September 20, 2017 (GMT -0400)
Reidsville

Weather History for KSIF - December, 2013

Change the Weather History Date:

Tuesday, December 3, 2013

  Actual Average (KGSO) Record (KGSO)
Temperature  
Mean Temperature 42 °F -  
Max Temperature 55 °F 54 °F 73 °F (2012)
Min Temperature 30 °F 32 °F 15 °F (1935)
Degree Days  
Heating Degree Days 22    
Moisture  
Dew Point 39 °F    
Average Humidity 88    
Maximum Humidity 100    
Minimum Humidity 64    
Precipitation  
Precipitation 0.00 in - - ()
Sea Level Pressure  
Sea Level Pressure 29.93 in    
Wind  
Wind Speed 0 mph (North)    
Max Wind Speed 0 mph    
Max Gust Speed -    
Visibility 8 miles    
Events Rain    
Averages and records for this station are not official NWS values.
T = Trace of Precipitation, MM = Missing Value Source: NWS Daily Summary

Daily Weather History Graph

Daily Weather History Graph

Search for Another Location

Airport or City:

Trip Planner

Search our weather history database for the weather conditions in past years. The results will help you decide how hot, cold, wet, or windy it might be!

Date:

Astronomy

Dec. 03, 2013 Rise Set
Actual Time 7:14 AM EST 5:03 PM EST
Civil Twilight 6:46 AM EST 5:32 PM EST
Nautical Twilight 6:14 AM EST 6:04 PM EST
Astronomical Twilight 5:43 AM EST 6:35 PM EST
Moon 7:42 AM EST (12/3) 6:05 PM EST (12/3)
Length of Visible Light 10h 46m
Length of Day
9h 49m
New Moon, 1% of the Moon is Illuminated
Dec 3
New Moon
Dec 9
First Quarter
Dec 17
Full
Dec 25
Last Quarter
Jan 1
New

Hourly Weather History & Observations

Time (EST) Temp. Dew Point Humidity Pressure Visibility Wind Dir Wind Speed Gust Speed Precip Events Conditions
12:15 AM 37.6 °F 36.0 °F 94% 29.88 in 7.0 mi Calm Calm - N/A   Clear
12:35 AM 36.5 °F 35.1 °F 95% 29.88 in 7.0 mi Calm Calm - N/A   Clear
12:55 AM 36.1 °F 35.1 °F 96% 29.88 in 10.0 mi Calm Calm - N/A   Clear
1:15 AM 35.2 °F 34.2 °F 96% 29.88 in 10.0 mi Calm Calm - N/A   Clear
1:35 AM 33.6 °F 32.5 °F 96% 29.88 in 7.0 mi Calm Calm - N/A   Clear
1:55 AM 33.1 °F 32.4 °F 97% 29.89 in 5.0 mi Calm Calm - N/A   Scattered Clouds
2:15 AM 33.6 °F 32.9 °F 97% 29.88 in 5.0 mi Calm Calm - N/A   Mostly Cloudy
2:35 AM 33.8 °F 33.1 °F 97% 29.87 in 5.0 mi Calm Calm - N/A   Scattered Clouds
2:55 AM 33.8 °F 33.1 °F 97% 29.88 in 7.0 mi Calm Calm - N/A   Clear
3:15 AM 32.7 °F 32.0 °F 97% 29.88 in 5.0 mi Calm Calm - N/A   Clear
3:35 AM 33.3 °F 32.7 °F 98% 29.88 in 7.0 mi Calm Calm - N/A   Clear
3:55 AM 32.2 °F 32.0 °F 99% 29.88 in 4.0 mi Calm Calm - N/A   Clear
4:15 AM 32.7 °F 32.2 °F 98% 29.88 in 5.0 mi Calm Calm - N/A   Clear
4:35 AM 32.0 °F 31.6 °F 99% 29.87 in 3.0 mi Calm Calm - N/A   Clear
4:55 AM 32.4 °F 32.2 °F 99% 29.89 in 7.0 mi Calm Calm - N/A   Clear
5:15 AM 33.1 °F 32.7 °F 99% 29.89 in 7.0 mi Calm Calm - N/A   Scattered Clouds
5:35 AM 31.5 °F 31.1 °F 99% 29.89 in 3.0 mi Calm Calm - N/A   Scattered Clouds
5:55 AM 32.2 °F 32.0 °F 99% 29.89 in 5.0 mi Calm Calm - N/A   Scattered Clouds
6:15 AM 32.4 °F 32.2 °F 99% 29.90 in 4.0 mi Calm Calm - N/A   Clear
6:35 AM 32.4 °F 32.0 °F 99% 29.91 in 5.0 mi Calm Calm - N/A   Clear
7:00 AM 31.1 °F 30.6 °F 98% 29.91 in 4.0 mi Calm Calm - N/A   Clear
7:15 AM 30.0 °F 29.3 °F 97% 29.92 in 3.0 mi Calm Calm - N/A   Clear
7:35 AM 30.9 °F 30.6 °F 99% 29.92 in 2.5 mi Calm Calm - N/A   Scattered Clouds
7:55 AM 32.0 °F 32.0 °F 100% 29.93 in 3.0 mi Calm Calm - N/A   Mostly Cloudy
8:15 AM 33.1 °F 32.7 °F 99% 29.93 in 4.0 mi Calm Calm - N/A   Overcast
8:35 AM 34.7 °F 34.7 °F 100% 29.93 in 5.0 mi Calm Calm - N/A   Overcast
8:55 AM 36.3 °F 36.1 °F 99% 29.93 in 7.0 mi Calm Calm - N/A   Overcast
9:15 AM 37.6 °F 37.4 °F 99% 29.94 in 7.0 mi Calm Calm - N/A   Overcast
9:35 AM 39.4 °F 38.3 °F 96% 29.94 in 7.0 mi Calm Calm - N/A   Overcast
9:55 AM 41.0 °F 38.3 °F 90% 29.94 in 7.0 mi Calm Calm - N/A   Overcast
10:15 AM 43.2 °F 39.2 °F 86% 29.95 in 10.0 mi Calm Calm - N/A   Overcast
10:35 AM 45.1 °F 39.4 °F 80% 29.96 in 10.0 mi Calm Calm - N/A   Overcast
10:55 AM 46.0 °F 39.4 °F 78% 29.96 in 10.0 mi Calm Calm - N/A   Overcast
11:15 AM 46.9 °F 39.7 °F 76% 29.95 in 10.0 mi Calm Calm - N/A   Overcast
11:35 AM 48.0 °F 39.9 °F 74% 29.95 in 10.0 mi Calm Calm - N/A   Overcast
12:15 PM 49.3 °F 40.3 °F 71% 29.94 in 10.0 mi Calm Calm - N/A   Overcast
12:35 PM 49.6 °F 40.3 °F 70% 29.94 in 10.0 mi Calm Calm - N/A   Overcast
12:55 PM 51.4 °F 41.2 °F 68% 29.93 in 10.0 mi Calm Calm - N/A   Overcast
1:15 PM 52.5 °F 41.4 °F 66% 29.92 in 10.0 mi Calm Calm - N/A   Overcast
1:35 PM 54.1 °F 42.3 °F 64% 29.91 in 10.0 mi Calm Calm - N/A   Overcast
1:55 PM 54.5 °F 42.8 °F 65% 29.90 in 10.0 mi Calm Calm - N/A   Overcast
2:15 PM 54.9 °F 43.5 °F 66% 29.91 in 10.0 mi Calm Calm - N/A   Overcast
2:35 PM 55.2 °F 43.7 °F 65% 29.91 in 10.0 mi Calm Calm - N/A   Overcast
2:55 PM 55.4 °F 44.2 °F 66% 29.91 in 10.0 mi Calm Calm - N/A   Overcast
3:15 PM 55.6 °F 44.8 °F 67% 29.92 in 10.0 mi Calm Calm - N/A   Overcast
3:35 PM 55.8 °F 44.6 °F 66% 29.93 in 10.0 mi Calm Calm - N/A   Overcast
3:55 PM 55.8 °F 44.8 °F 67% 29.93 in 10.0 mi Calm Calm - N/A   Overcast
4:15 PM 55.4 °F 45.0 °F 68% 29.93 in 10.0 mi Calm Calm - N/A   Overcast
4:35 PM 54.3 °F 44.8 °F 70% 29.93 in 10.0 mi Calm Calm - N/A   Scattered Clouds
4:55 PM 51.8 °F 45.3 °F 79% 29.93 in 10.0 mi Calm Calm - N/A   Mostly Cloudy
5:15 PM 50.7 °F 45.5 °F 82% 29.94 in 10.0 mi Calm Calm - N/A   Overcast
5:35 PM 50.0 °F 45.3 °F 84% 29.94 in 10.0 mi Calm Calm - N/A   Overcast
5:55 PM 49.1 °F 45.5 °F 87% 29.94 in 10.0 mi Calm Calm - N/A   Overcast
6:15 PM 49.1 °F 45.3 °F 87% 29.95 in 10.0 mi Calm Calm - N/A   Overcast
6:35 PM 47.5 °F 44.8 °F 90% 29.95 in 10.0 mi Calm Calm - N/A   Mostly Cloudy
6:55 PM 46.9 °F 44.2 °F 90% 29.95 in 10.0 mi Calm Calm - N/A   Mostly Cloudy
7:15 PM 45.3 °F 43.5 °F 93% 29.95 in 10.0 mi Calm Calm - N/A   Scattered Clouds
7:35 PM 45.0 °F 43.2 °F 93% 29.95 in 10.0 mi Calm Calm - N/A   Clear
7:55 PM 45.5 °F 44.2 °F 95% 29.96 in 7.0 mi Calm Calm - N/A   Scattered Clouds
8:15 PM 46.4 °F 45.1 °F 95% 29.96 in 7.0 mi Calm Calm - N/A   Mostly Cloudy
8:35 PM 46.8 °F 45.0 °F 93% 29.96 in 7.0 mi Calm Calm - N/A   Mostly Cloudy
8:55 PM 46.2 °F 45.0 °F 95% 29.96 in 5.0 mi Calm Calm - N/A   Scattered Clouds
9:15 PM 46.4 °F 45.3 °F 96% 29.96 in 5.0 mi Calm Calm - N/A   Mostly Cloudy
9:35 PM 46.2 °F 45.5 °F 97% 29.97 in 5.0 mi Calm Calm - N/A   Overcast
9:55 PM 48.2 °F 47.3 °F 97% 29.97 in 7.0 mi Calm Calm - N/A   Overcast
10:15 PM 48.9 °F 46.8 °F 92% 29.97 in 7.0 mi Calm Calm - N/A   Overcast
10:35 PM 48.6 °F 46.8 °F 93% 29.99 in 7.0 mi Calm Calm - N/A   Overcast
10:55 PM 48.4 °F 46.6 °F 93% 29.99 in 7.0 mi Calm Calm - N/A Rain Light Rain
11:15 PM 48.4 °F 46.8 °F 94% 29.99 in 7.0 mi Calm Calm - N/A Rain Light Rain
11:35 PM 49.1 °F 47.7 °F 95% 30.00 in 7.0 mi Calm Calm - N/A   Overcast
11:55 PM 50.0 °F 47.8 °F 92% 30.00 in 4.0 mi Calm Calm - N/A   Drizzle